XE3JAR Weather Reports


time (UTC)temp
F
wind
direction
speed
knots
gust
knots
rain 1hr
in
rain 24hr
in
rain mn
in
humidity
%
barometer
mb
20260506214356 106 135 19.1 19.1 0.00 0.00 0.00 57 1010.5
20260506204410 109 225 21.7 25.2 0.00 0.00 0.00 54 1011.2
20260506195314 115 225 25.2 25.2 0.00 0.00 0.00 49 1012.2
20260506194813 115 225 25.2 25.2 0.00 0.00 0.00 49 1012.2
20260506194312 115 225 25.2 25.2 0.00 0.00 0.00 49 1012.2
20260506193809 115 225 25.2 25.2 0.00 0.00 0.00 49 1012.2
20260506184709 113 248 9.6 9.6 0.00 0.00 0.00 50 1013.2
20260506183725 113 203 11.3 11.3 0.00 0.00 0.00 50 1013.6
20260506181552 109 248 9.6 25.2 0.00 0.00 0.00 53 1013.6
20260506170432 109 158 6.1 9.6 0.00 0.00 0.00 54 1014.6
20260506164945 109 90 19.1 19.1 0.00 0.00 0.00 52 1014.6
20260506163434 109 225 6.1 6.1 0.00 0.00 0.00 52 1014.6
20260506162419 108 270 9.6 11.3 0.00 0.00 0.00 54 1014.6
20260506161914 108 113 0.0 19.1 0.00 0.00 0.00 54 1014.9
20260506150332 99 113 6.1 21.7 0.00 0.00 0.00 67 1014.9
20260506134745 90 135 9.6 19.1 0.00 0.00 0.00 78 1014.9
20260506133721 90 113 6.1 11.3 0.00 0.00 0.00 80 1015.2
20260506133236 90 113 9.6 9.6 0.00 0.00 0.00 81 1015.2
20260506132741 88 135 11.3 19.1 0.00 0.00 0.00 83 1015.2
20260506125941 84 90 6.1 11.3 0.00 0.00 0.00 91 1015.2
20260506125438 84 68 15.6 15.6 0.00 0.00 0.00 92 1014.9
20260506121903 81 113 11.3 15.6 0.00 0.00 0.00 99 1014.9
20260506115908 82 113 0.0 0.0 0.00 0.00 0.00 98 1014.9
20260506114357 82 113 0.0 0.0 0.00 0.00 0.00 98 1014.6
20260506101433 82 225 0.0 0.0 0.00 0.00 0.00 98 1014.2
20260506084404 84 113 9.6 15.6 0.00 0.00 0.00 94 1013.6
20260506082404 84 113 6.1 6.1 0.00 0.00 0.00 93 1013.6
20260506080343 84 113 15.6 15.6 0.00 0.00 0.00 94 1013.9
20260506071757 84 135 6.1 11.3 0.00 0.00 0.00 94 1014.2
20260506070505 84 180 9.6 15.6 0.00 0.00 0.00 95 1014.2
20260506061859 84 158 0.0 3.5 0.00 0.00 0.00 91 1014.6